Weather observations for the past three days for
The Florida Keys - Marathon International Airport
Imperial (Metric)
Date Time (edt) Wind (mph) Vis. (mi.) Weather Sky Cond. Temperature (ºF) Relative Humidity Wind Chill (°F) Heat Index (°F) Pressure Precipitation (in)
Air Dwpt 6 hour altimeter (in) sea level (mb) 1 hr 3 hr 6 hr
Max. Min.
17 19:53 E 17 G 28 10.00 A Few Clouds FEW022 84.9 75 89.1 84.9 72% 93 29.91 1012.8
17 18:53 E 20 G 28 10.00 A Few Clouds FEW022 84.9 75.9 75% 94 29.9 1012.6
17 17:53 E 20 G 30 10.00 A Few Clouds FEW022 87.1 75.9 70% 98 29.9 1012.5
17 16:53 E 20 G 29 10.00 A Few Clouds FEW020 87.1 77 72% 99 29.9 1012.5
17 15:53 E 18 10.00 A Few Clouds FEW042 88 75.9 68% 99 29.91 1012.9
17 14:53 E 17 G 26 10.00 Partly Cloudy FEW022 SCT028 SCT039 88 77 70% 100 29.92 1013.2
17 13:53 E 17 G 29 10.00 Partly Cloudy FEW022 SCT032 SCT045 88 75.9 89.1 84 68% 99 29.94 1013.8
17 12:53 E 17 G 30 10.00 A Few Clouds FEW021 88 75.9 68% 99 29.94 1013.9
17 11:53 E 16 G 28 10.00 A Few Clouds FEW022 87.1 75.9 70% 98 29.95 1014.2
17 10:53 E 18 G 26 10.00 A Few Clouds FEW020 87.1 77 72% 99 29.96 1014.5
17 09:53 E 16 G 25 10.00 Fair CLR 86 75.9 72% 96 29.96 1014.5
17 08:53 E 12 10.00 Partly Cloudy SCT021 84.9 77 77% 95 29.96 1014.6
17 07:53 E 10 10.00 Fair CLR 84 75.9 84 82.9 77% 93 29.95 1014.2
17 06:53 E 13 10.00 Fair CLR 82.9 75.9 79% 91 29.95 1014.1
17 05:53 E 12 10.00 A Few Clouds FEW019 82.9 75.9 79% 91 29.94 1013.8
17 04:53 E 12 10.00 Fair CLR 82.9 77 82% 92 29.94 1013.7
17 03:53 E 14 10.00 A Few Clouds FEW018 82.9 77 82% 92 29.93 1013.6
17 02:53 E 10 10.00 Fair CLR 82.9 77 82% 92 29.95 1014.0
17 01:53 E 12 10.00 Fair CLR 82.9 77 84.9 82.9 82% 92 29.96 1014.5
17 00:53 E 12 10.00 Fair CLR 82.9 75.9 79% 91 29.98 1015.1
16 23:53 E 9 10.00 Fair CLR 82.9 75.9 79% 91 29.99 1015.5
16 22:53 E 12 10.00 Fair CLR 84 75 74% 92 29.99 1015.3
16 21:53 E 10 10.00 Fair CLR 84 75 74% 92 29.98 1015.1
16 20:53 E 12 10.00 Fair CLR 84.9 75 72% 93 29.98 1015.1
16 19:53 E 10 10.00 Fair CLR 84.9 75.9 89.1 84.9 75% 94 29.98 1015.0
16 18:53 E 16 10.00 Fair CLR 86 75.9 72% 96 29.96 1014.5
16 17:53 E 14 10.00 Fair CLR 87.1 77 72% 99 29.97 1014.8
16 16:53 E 14 10.00 Fair CLR 88 78.1 73% 102 29.99 1015.3
16 15:53 E 17 10.00 A Few Clouds FEW019 88 78.1 73% 102 29.99 1015.4
16 14:53 E 16 10.00 A Few Clouds FEW018 87.1 79 77% 101 30 1015.7
16 13:53 E 14 10.00 Partly Cloudy SCT016 88 79 89.1 84 75% 103 30 1015.9
16 12:53 E 15 10.00 Mostly Cloudy BKN016 89.1 79 72% 105 30.01 1016.1
16 11:53 E 18 10.00 Partly Cloudy SCT017 88 79 75% 103 30.02 1016.4
16 10:53 E 16 10.00 Fair CLR 87.1 79 77% 101 30 1015.9
16 09:53 E 15 G 22 10.00 Fair CLR 84.9 78.1 80% 97 30 1015.7
16 08:53 E 9 10.00 Fair CLR 84.9 78.1 80% 97 30 1015.7
16 07:53 E 10 10.00 Fair CLR 84 77 84 84 80% 94 29.99 1015.4
16 06:53 E 12 10.00 Fair CLR 84 77 80% 94 29.98 1015.1
16 05:53 E 8 10.00 Fair CLR 84 75.9 77% 93 29.97 1014.8
16 04:53 E 12 10.00 Fair CLR 84 77 80% 94 29.96 1014.5
16 03:53 E 12 10.00 Fair CLR 84 75 74% 92 29.95 1014.3
16 02:53 E 12 10.00 Fair CLR 84 73.9 72% 91 29.95 1014.1
16 01:53 E 12 10.00 Fair CLR 84 73.9 84 82 72% 91 29.96 1014.5
16 00:53 E 18 G 25 10.00 Fair CLR 84 75 74% 92 29.95 1014.0
15 23:53 E 12 10.00 Fair CLR 82.9 77 82% 92 29.97 1014.9
15 22:53 E 12 10.00 A Few Clouds FEW110 82.9 75.9 79% 91 29.99 1015.4
15 21:53 E 13 10.00 Fair CLR 82.9 75 77% 90 29.99 1015.5
15 20:53 E 8 10.00 Fair CLR 82 73.9 77% 88 29.97 1014.9
15 19:53 E 8 10.00 Partly Cloudy SCT100 SCT120 82.9 75.9 82.9 81 79% 91 29.97 1014.9 0.02
15 18:53 NE 7 10.00 Fair CLR 82 75 79% 89 29.97 1014.7
15 17:53 E 7 10.00 A Few Clouds FEW120 82 73.9 77% 88 29.96 1014.5
15 16:53 E 9 10.00 A Few Clouds FEW120 82 75 79% 89 29.96 1014.4 0.02
15 15:53 E 6 10.00 A Few Clouds FEW110 82 75.9 82% 89 29.97 1014.9
15 14:53 E 5 10.00 Light Rain SCT040 BKN070 OVC095 81 75.9 85% 87 29.99 1015.4 0.02
15 13:53 E 5 10.00 Light Rain SCT039 BKN075 OVC110 81 79 82.9 80.1 94% 89 29.99 1015.6 0.05 0.12
15 12:53 Calm 7.00 Light Rain FEW070 OVC100 80.1 78.1 94% 86 30.01 1016.0 0.06
15 11:53 E 6 10.00 Light Rain FEW046 BKN070 OVC110 81 77 88% 88 30.01 1016.0 0.01
15 10:53 NE 8 10.00 Fair CLR 82 75 79% 89 29.99 1015.5
15 09:53 Vrbl 6 10.00 Partly Cloudy SCT110 80.1 73.9 82% 85 29.98 1015.3
15 08:53 NE 5 10.00 Mostly Cloudy SCT020 SCT030 BKN120 80.1 75 85% 85 29.97 1014.8
15 07:53 NW 3 10.00 Light Rain BKN017 BKN025 OVC033 80.1 75 82.9 79 85% 85 29.97 1014.7 0.01 0.01
15 05:53 E 6 10.00 Partly Cloudy FEW017 SCT025 SCT110 82.9 79 88% 94 29.92 1013.3
15 04:53 SE 5 10.00 Partly Cloudy SCT120 82.9 79 88% 94 29.9 1012.6
15 03:53 E 5 10.00 A Few Clouds FEW120 82.9 78.1 85% 93 29.91 1012.7
15 02:53 SE 3 10.00 A Few Clouds FEW120 82.9 77 82% 92 29.91 1012.7
15 01:53 SE 3 10.00 A Few Clouds FEW120 82.9 77 84 82 82% 92 29.92 1013.0
15 00:53 SE 6 10.00 A Few Clouds FEW120 84 75.9 77% 93 29.91 1012.9
14 23:53 SE 3 10.00 Fair CLR 82 79 90% 92 29.91 1012.9
14 22:53 Calm 10.00 Fair CLR 82 79 90% 92 29.92 1013.2
14 21:53 NW 3 10.00 Overcast BKN015 OVC022 82 78.1 88% 91 29.92 1013.0
14 20:53 Calm 10.00 Fair CLR 82.9 78.1 85% 93 29.9 1012.3
Date Time (edt) Wind (mph) Vis. (mi.) Weather Sky Cond. Air Dwpt Max. Min. Relative Humidity Wind Chill (°F) Heat Index (°F) altimeter (in) sea level (mb) 1 hr 3 hr 6 hr
6 hour
Temperature (ºF) Pressure Precipitation (in)